Location: Carella
(45.8167°N, 9.2667°E)
Time: 13:29:19
(UTC+00:00)

Cosmos 1953 - Visible Passes

Search period start: 06 August 2020 00:00
Search period end: 16 August 2020 00:00
Orbit: 540 x 557 km, 82.5° (Epoch: 05 August)

Date Brightness Start Highest point End Pass type
(mag) Time Alt. Az. Time Alt. Az. Time Alt. Az.
06 Aug 4.5 02:04:21 10° SE 02:07:32 23° E 02:10:45 10° NE visible
07 Aug 4.3 01:59:25 10° SE 02:02:42 25° E 02:06:01 10° NE visible
07 Aug 3.5 03:35:33 10° SW 03:38:59 27° WNW 03:42:29 10° NNW visible
08 Aug 4.2 01:55:01 13° SE 01:57:52 27° E 02:01:16 10° NNE visible
08 Aug 3.6 03:30:50 10° SW 03:34:12 25° WNW 03:37:37 10° NNW visible
09 Aug 4.1 01:50:38 16° SE 01:53:02 29° E 01:56:31 10° NNE visible
09 Aug 3.7 03:26:20 11° SW 03:29:25 24° WNW 03:32:44 10° NNW visible
10 Aug 3.9 01:46:14 20° SE 01:48:10 31° E 01:51:45 10° NNE visible
10 Aug 3.8 03:21:56 12° WSW 03:24:37 22° WNW 03:27:50 10° NNW visible
11 Aug 3.7 01:41:49 25° SE 01:43:21 33° E 01:46:59 10° NNE visible
11 Aug 3.9 03:17:31 14° WSW 03:19:49 21° WNW 03:22:56 10° NNW visible
12 Aug 3.6 01:37:22 29° SE 01:38:30 36° E 01:42:13 10° NNE visible
12 Aug 3.9 03:13:04 14° WSW 03:15:01 20° WNW 03:18:01 10° NNW visible
13 Aug 3.4 01:32:53 35° ESE 01:33:39 38° E 01:37:27 10° NNE visible
13 Aug 4.0 03:08:36 15° W 03:10:13 18° WNW 03:13:06 10° NNW visible
14 Aug 3.2 01:28:24 40° ESE 01:28:49 41° E 01:32:39 10° NNE visible
14 Aug 4.1 03:04:06 15° W 03:05:25 17° WNW 03:08:10 10° NNW visible
15 Aug 3.1 01:23:53 45° E 01:23:58 45° E 01:27:52 10° NNE visible
15 Aug 4.2 02:59:35 15° W 03:00:38 16° WNW 03:03:13 10° NNW visible
